Location: ??????
(56.0120°N, 39.1740°E)
Time: 10:25:32
(UTC+00:00)

Cosmos 2322 Rocket - Pass Details

Date: 14 April 2026
Orbit: 832 x 849 km, 71.0° (Epoch: 19 May)

Event Time Altitude Azimuth Distance (km) Brightness Sun altitude
Rises 23:20:01 0° 323° (NW) 3,392 5.6 -20.0°
Reaches altitude 10° 23:22:38 10° 331° (NNW) 2,457 5.0 -19.8°
Maximum altitude 23:27:53 39° 40° (NE) 1,251 3.7 -19.4°
Drops below altitude 10° 23:33:08 10° 108° (ESE) 2,456 4.8 -19.0°
Sets 23:35:45 0° 116° (ESE) 3,391 5.5 -18.8°
